Location: Arthez
(43.0833°N, 0.2500°W)
Time: 09:52:11
(UTC+00:00)

NOSS 3-1 (A) - Pass Details

Date: 14 December 2023
Orbit: 665 x 1546 km, 63.4° (Epoch: 18 February)

Event Time Altitude Azimuth Distance (km) Brightness Sun altitude
Exits shadow 05:08:10 13° 349° (N) 2,454 5.4 -24.0°
Maximum altitude 05:08:17 13° 350° (N) 2,459 5.4 -24.0°
Drops below altitude 10° 05:11:16 10° 17° (NNE) 2,832 6.0 -23.4°
Sets 05:16:00 0° 43° (NE) 4,019 7.2 -22.6°
